Fitchburg, MA

10:46 AM EDT on April 22, 2018 (GMT -0400)
Fitchburg Municipal

Weather History for KFIT - October, 2012

Change the Weather History Date:

Monday, October 8, 2012

  Actual Average (KORH) Record (KORH)
Temperature  
Mean Temperature 46 °F -  
Max Temperature 55 °F 61 °F 82 °F (1916)
Min Temperature 37 °F 43 °F 26 °F (1935)
Degree Days  
Heating Degree Days 19    
Moisture  
Dew Point 39 °F    
Average Humidity 87    
Maximum Humidity 100    
Minimum Humidity 53    
Precipitation  
Precipitation 0.01 in - - ()
Sea Level Pressure  
Sea Level Pressure 30.17 in    
Wind  
Wind Speed 1 mph (NW)    
Max Wind Speed 8 mph    
Max Gust Speed -    
Visibility 6 miles    
Events Fog    
Averages and records for this station are not official NWS values.
T = Trace of Precipitation, MM = Missing Value Source: NWS Daily Summary

Daily Weather History Graph

Daily Weather History Graph

Search for Another Location

Airport or City:

Astronomy

Oct. 08, 2012 Rise Set
Actual Time 6:52 AM EDT 6:15 PM EDT
Civil Twilight 6:24 AM EDT 6:43 PM EDT
Nautical Twilight 5:51 AM EDT 7:16 PM EDT
Astronomical Twilight 5:18 AM EDT 7:49 PM EDT
Moon No Moon Rise 2:10 PM EDT (10/8)
Length of Visible Light 12h 19m
Length of Day
11h 23m
Waning Gibbous, 46% of the Moon is Illuminated
Oct 8
Waning Gibbous
Oct 15
New
Oct 21
First Quarter
Oct 29
Full
Nov 6
Last Quarter

Hourly Weather History & Observations

Time (EDT) Temp. Windchill Dew Point Humidity Pressure Visibility Wind Dir Wind Speed Gust Speed Precip Events Conditions
12:52 AM 46.9 °F - 43.0 °F 86% 30.10 in 10.0 mi NW 4.6 mph - 0.00 in   Overcast
1:52 AM 45.0 °F 43.5 °F 42.1 °F 90% 30.11 in 10.0 mi WNW 3.5 mph - 0.01 in   Clear
2:52 AM 43.0 °F - 41.0 °F 93% 30.10 in 10.0 mi Calm Calm - N/A   Clear
2:58 AM 42.8 °F - 41.0 °F 93% 30.09 in 1.0 mi Calm Calm - N/A   Mist
3:04 AM 42.8 °F - 41.0 °F 93% 30.09 in 2.0 mi Calm Calm - N/A   Partly Cloudy
3:11 AM 42.8 °F - 41.0 °F 93% 30.09 in 3.0 mi Calm Calm - N/A   Partly Cloudy
3:13 AM 42.8 °F - 39.2 °F 87% 30.09 in 1.5 mi Calm Calm - N/A   Partly Cloudy
3:17 AM 41.0 °F - 39.2 °F 93% 30.09 in 0.8 mi Calm Calm - N/A   Mist
3:40 AM 41.0 °F - 39.2 °F 93% 30.10 in 1.2 mi Calm Calm - N/A   Mostly Cloudy
3:43 AM 39.2 °F - 39.2 °F 100% 30.10 in 2.5 mi Calm Calm - N/A   Scattered Clouds
3:50 AM 41.0 °F - 39.2 °F 93% 30.10 in 7.0 mi Calm Calm - N/A   Scattered Clouds
3:52 AM 39.9 °F - 39.0 °F 97% 30.11 in 6.0 mi Calm Calm - N/A   Scattered Clouds
4:00 AM 39.2 °F - 39.2 °F 100% 30.11 in 1.8 mi Calm Calm - N/A   Partly Cloudy
4:07 AM 41.0 °F - 39.2 °F 93% 30.11 in 0.8 mi Calm Calm - N/A   Mist
4:18 AM 41.0 °F - 39.2 °F 93% 30.11 in 1.2 mi Calm Calm - N/A   Partly Cloudy
4:22 AM 39.2 °F - 39.2 °F 100% 30.11 in 4.0 mi Calm Calm - N/A   Partly Cloudy
4:52 AM 39.0 °F - 37.9 °F 96% 30.14 in 4.0 mi Calm Calm - N/A   Clear
5:00 AM 39.2 °F - 37.4 °F 93% 30.13 in 9.0 mi Calm Calm - N/A   Partly Cloudy
5:20 AM 39.2 °F - 37.4 °F 93% 30.14 in 1.5 mi Calm Calm - N/A   Partly Cloudy
5:24 AM 39.2 °F - 37.4 °F 93% 30.14 in 0.8 mi Calm Calm - N/A   Mist
5:38 AM 39.2 °F - 37.4 °F 93% 30.14 in 1.2 mi Calm Calm - N/A   Partly Cloudy
5:41 AM 39.2 °F - 37.4 °F 93% 30.14 in 3.0 mi Calm Calm - N/A   Partly Cloudy
5:52 AM 39.0 °F - 37.9 °F 96% 30.14 in 10.0 mi Calm Calm - N/A   Clear
6:00 AM 37.4 °F - 37.4 °F 100% 30.14 in 2.5 mi Calm Calm - N/A   Partly Cloudy
6:05 AM 37.4 °F - 35.6 °F 93% 30.14 in 1.0 mi Calm Calm - N/A   Mist
6:16 AM 39.2 °F - 37.4 °F 93% 30.14 in 0.5 mi Calm Calm - N/A Fog Fog
6:52 AM 39.0 °F - 37.9 °F 96% 30.17 in 0.2 mi Calm Calm - N/A Fog Fog
7:31 AM 39.2 °F - 37.4 °F 93% 30.18 in 1.5 mi Calm Calm - N/A   Mostly Cloudy
7:43 AM 39.2 °F - 39.2 °F 100% 30.19 in 2.5 mi Calm Calm - N/A   Scattered Clouds
7:50 AM 39.2 °F - 39.2 °F 100% 30.19 in 9.0 mi Calm Calm - N/A   Partly Cloudy
7:52 AM 41.0 °F - 39.0 °F 93% 30.20 in 9.0 mi Calm Calm - N/A   Partly Cloudy
8:52 AM 48.0 °F - 43.0 °F 83% 30.22 in 10.0 mi NNW 4.6 mph - N/A   Clear
9:52 AM 52.0 °F - 41.0 °F 66% 30.23 in 10.0 mi WNW 8.1 mph - N/A   Clear
10:52 AM 54.0 °F - 37.9 °F 55% 30.25 in 10.0 mi NNW 5.8 mph - N/A   Scattered Clouds
12:52 PM 54.0 °F - 37.9 °F 55% 30.25 in 10.0 mi WNW 6.9 mph - N/A   Mostly Cloudy
1:52 PM 55.0 °F - 39.0 °F 55% 30.25 in 10.0 mi NNW 5.8 mph - N/A   Overcast
2:52 PM 55.0 °F - 37.9 °F 53% 30.27 in 10.0 mi SSE 3.5 mph - N/A   Mostly Cloudy
3:52 PM 55.0 °F - 37.9 °F 53% 30.27 in 10.0 mi Calm Calm - N/A   Mostly Cloudy
4:52 PM 55.0 °F - 39.0 °F 55% 30.26 in 10.0 mi ENE 3.5 mph - N/A   Partly Cloudy
5:52 PM 53.1 °F - 41.0 °F 64% 30.28 in 10.0 mi Calm Calm - N/A   Clear
6:52 PM 48.9 °F - 43.0 °F 80% 30.31 in 10.0 mi Calm Calm - N/A   Clear
8:52 PM 46.9 °F - 44.1 °F 90% 30.32 in 10.0 mi Calm Calm - N/A   Overcast
9:52 PM 46.0 °F - 43.0 °F 89% 30.32 in 10.0 mi Calm Calm - N/A   Clear
10:52 PM 44.1 °F - 42.1 °F 93% 30.33 in 10.0 mi Calm Calm - N/A   Clear
11:52 PM 45.0 °F - 43.0 °F 93% 30.33 in 10.0 mi Calm Calm - N/A   Mostly Cloudy